Weather reports worldwide

Advertisment
Herrera del Duque, Spain (8264): temperature & dewpoint: 19.08.2019 07:00:00 - 25.08.2019 07:00:00 (CEST)Herrera del Duque, Spain (8264): wind speed & gusts: 19.08.2019 07:00:00 - 25.08.2019 07:00:00 (CEST)Herrera del Duque, Spain (8264): wind direction: 19.08.2019 07:00:00 - 25.08.2019 07:00:00 (CEST)Herrera del Duque, Spain (8264): reduced air pressure: 19.08.2019 07:00:00 - 25.08.2019 07:00:00 (CEST)Herrera del Duque, Spain (8264): visibility: 19.08.2019 07:00:00 - 25.08.2019 07:00:00 (CEST)Herrera del Duque, Spain (8264): sunshine duration: 19.08.2019 07:00:00 - 25.08.2019 07:00:00 (CEST)Herrera del Duque, Spain (8264): precipitation: 19.08.2019 07:00:00 - 25.08.2019 07:00:00 (CEST)
Date & Time tt [°C] td [°C] ff [km/h] ff [kn] fx [km/h] fx [kn] dd ppp [hPa] vv [km] sd [min] rr [mm]
25.08.2019 07:00:00 23,1 8,4 2 1 12 7 ENE 1014,5 18 0 0,0
25.08.2019 06:00:00 24,1 7,3 3 2 20 11 WSW 1013,7 19 0 0,0
25.08.2019 05:00:00 24,3 5,1 6 4 18 10 ESE 1013,8 20 0 0,0
25.08.2019 04:00:00 24,4 1,9 3 2 11 6 W 1014,1 20 0 0,0
25.08.2019 03:00:00 26,6 0,4 4 2 23 12 N 1013,3 20 0 0,0
25.08.2019 02:00:00 30,1 -0,3 15 8 23 13 SSE 1012,8 20 0 -
25.08.2019 01:00:00 30,3 -0,3 10 6 25 13 S 1013,0 20 0 0,0
25.08.2019 00:00:00 27,3 0,9 9 5 11 6 SE 1013,6 20 0 0,0
24.08.2019 23:00:00 28,4 0,2 6 3 13 7 SSE 1013,5 20 0 0,0
24.08.2019 22:00:00 31,7 0,0 7 4 17 9 SSE 1012,3 19 0 0,0
24.08.2019 21:00:00 33,5 0,2 9 5 16 9 SSE 1011,7 20 44 0,0
24.08.2019 20:00:00 35,6 0,6 10 6 23 12 SE 1011,3 19 60 -
24.08.2019 19:00:00 36,8 0,2 6 3 26 14 SE 1011,5 20 59 0,0
24.08.2019 18:00:00 36,8 0,2 11 6 30 16 SE 1011,9 20 60 0,0
24.08.2019 17:00:00 37,6 0,8 6 3 34 18 ENE - 20 60 0,0
24.08.2019 16:00:00 37,2 0,5 6 3 24 13 ENE - 19 60 0,0
24.08.2019 15:00:00 35,9 0,9 16 9 27 14 E - 17 60 0,0
24.08.2019 14:00:00 34,9 1,3 8 4 17 9 E - 19 60 -
24.08.2019 13:00:00 33,7 2,5 8 4 19 10 E 1015,1 18 60 0,0
24.08.2019 12:00:00 31,7 4,5 5 3 10 5 NNW 1016,0 20 60 0,0
24.08.2019 11:00:00 28,6 4,1 3 2 8 5 ESE 1016,7 18 60 0,0
24.08.2019 10:00:00 24,9 2,3 4 2 7 4 WNW 1017,2 16 60 0,0
24.08.2019 09:00:00 22,3 2,5 3 2 5 3 W 1017,2 20 60 0,0
24.08.2019 08:00:00 18,9 2,3 3 1 8 4 SSE 1017,4 18 2 -
24.08.2019 07:00:00 19,6 2,9 3 1 6 3 S 1017,1 20 0 0,0
24.08.2019 06:00:00 21,5 2,7 2 1 9 5 S 1016,7 20 0 0,0
24.08.2019 05:00:00 22,1 2,3 3 2 6 3 WSW 1016,5 20 0 0,0
24.08.2019 04:00:00 22,7 1,7 4 2 7 4 SW 1016,2 20 0 0,0
24.08.2019 03:00:00 23,8 0,2 3 2 10 5 SSW 1016,1 20 0 0,0
24.08.2019 02:00:00 25,7 -1,2 4 2 21 11 E 1015,5 20 0 -
24.08.2019 01:00:00 29,3 -3,0 11 6 31 17 ESE 1014,5 20 0 0,0
24.08.2019 00:00:00 30,7 -3,3 16 9 28 15 ESE 1014,1 8 0 0,0
23.08.2019 23:00:00 30,6 -1,0 12 6 30 16 E 1014,0 19 0 0,0
23.08.2019 22:00:00 30,1 3,9 3 1 7 4 SW 1013,4 20 0 0,0
23.08.2019 21:00:00 33,2 2,1 5 3 9 5 NNE 1012,4 16 36 0,0
23.08.2019 20:00:00 35,5 2,9 3 2 11 6 NE 1012,0 16 60 -
23.08.2019 19:00:00 35,8 4,1 6 4 24 13 ENE 1012,2 14 60 0,0
23.08.2019 18:00:00 36,8 5,0 5 3 17 9 N 1012,3 20 50 0,0
23.08.2019 17:00:00 34,4 5,0 7 4 21 11 E 1013,1 20 32 0,0
23.08.2019 16:00:00 36,4 5,6 9 5 22 12 N - 17 60 0,0
23.08.2019 15:00:00 36,1 3,4 8 4 15 8 N - 18 60 0,0
23.08.2019 14:00:00 33,9 9,2 5 3 16 9 NNE - 19 60 -
23.08.2019 13:00:00 32,6 10,0 5 3 15 8 NE 1015,8 14 60 0,0
23.08.2019 12:00:00 31,1 10,4 7 4 18 10 E 1016,5 15 60 0,0
23.08.2019 11:00:00 29,5 10,6 9 5 15 8 ENE 1017,1 14 60 0,0
23.08.2019 10:00:00 27,2 7,6 3 2 7 4 ENE 1017,4 16 60 0,0
23.08.2019 09:00:00 23,6 5,9 3 2 5 3 W 1017,9 18 55 0,0
23.08.2019 08:00:00 21,0 6,1 4 2 6 4 S 1017,8 17 0 -
23.08.2019 07:00:00 21,4 6,1 5 3 8 5 SSE 1017,2 17 0 0,0
23.08.2019 06:00:00 23,1 5,0 4 2 11 6 SSW 1016,8 20 0 0,0
23.08.2019 05:00:00 24,2 5,0 6 3 14 8 WSW 1016,2 18 0 0,0
23.08.2019 04:00:00 26,9 6,2 7 4 36 20 SW 1015,4 20 0 0,0
23.08.2019 03:00:00 28,5 5,3 19 10 38 20 SE 1014,8 18 0 0,0
23.08.2019 02:00:00 29,0 2,3 21 11 32 17 ESE 1015,0 17 0 -
23.08.2019 01:00:00 27,5 2,5 11 6 21 12 E 1015,3 20 0 0,0
23.08.2019 00:00:00 26,5 2,5 5 3 17 9 SW 1015,5 16 0 0,0
22.08.2019 23:00:00 30,8 0,2 11 6 20 11 E 1014,4 20 0 0,0
22.08.2019 22:00:00 31,1 0,4 8 4 14 7 ESE 1013,9 19 0 0,0
22.08.2019 21:00:00 33,1 1,1 8 4 20 11 ESE 1013,3 19 49 0,0
22.08.2019 20:00:00 34,8 1,3 9 5 21 12 ESE 1012,7 13 60 -
22.08.2019 19:00:00 35,7 1,9 10 5 30 16 NNE 1012,7 17 60 0,0
22.08.2019 18:00:00 36,0 2,1 10 5 31 17 E 1013,0 16 60 0,0
22.08.2019 17:00:00 35,6 1,8 9 5 29 16 E - 8 60 0,0
22.08.2019 16:00:00 35,3 2,7 11 6 31 17 E - 20 60 0,0
22.08.2019 15:00:00 34,3 4,0 14 8 26 14 E - 14 60 0,0
22.08.2019 14:00:00 33,7 6,1 11 6 24 13 ESE - 16 60 -
22.08.2019 13:00:00 32,3 7,9 13 7 24 13 E - 19 60 0,0
22.08.2019 12:00:00 29,7 10,8 13 7 24 13 E 1017,4 13 60 0,0
22.08.2019 11:00:00 27,5 12,3 15 8 25 13 E 1017,8 20 60 0,0
22.08.2019 10:00:00 25,1 13,7 8 5 15 8 E 1018,3 16 60 0,0
22.08.2019 09:00:00 22,3 13,4 3 2 6 3 NNE 1018,6 18 59 0,0
22.08.2019 08:00:00 19,7 13,7 3 2 7 4 WSW 1018,6 14 0 -
22.08.2019 07:00:00 19,8 13,5 2 1 8 4 WNW 1018,2 18 0 0,0
22.08.2019 06:00:00 20,7 13,4 4 2 9 5 WSW 1017,9 17 0 0,0
22.08.2019 05:00:00 22,2 13,9 6 3 15 8 ENE 1017,6 17 0 0,0
22.08.2019 04:00:00 23,1 14,1 7 4 22 12 ENE 1017,6 19 0 0,0
22.08.2019 03:00:00 24,2 14,6 13 7 38 21 ESE 1017,4 18 0 0,0
22.08.2019 02:00:00 25,7 13,9 19 10 34 19 E 1017,0 7 0 -
22.08.2019 01:00:00 26,9 13,0 18 10 32 18 E 1016,4 20 0 0,0
22.08.2019 00:00:00 27,4 11,8 13 7 23 13 E 1016,0 18 0 0,0
21.08.2019 23:00:00 26,6 6,1 3 2 7 4 SSE 1015,7 18 0 0,0
21.08.2019 22:00:00 28,2 6,2 4 2 8 5 S 1014,6 15 0 0,0
21.08.2019 21:00:00 30,9 5,3 8 4 14 8 NNW 1013,8 18 43 0,0
21.08.2019 20:00:00 33,4 2,3 8 5 20 11 NNW 1013,0 20 60 -
21.08.2019 19:00:00 33,8 4,5 9 5 27 15 NNW 1012,8 15 60 0,0
21.08.2019 18:00:00 33,6 8,3 21 11 37 20 N 1013,0 14 60 0,0
21.08.2019 17:00:00 35,4 1,7 13 7 24 13 N - 18 60 0,0
21.08.2019 16:00:00 34,8 2,3 10 5 22 12 NW 1013,7 20 46 0,0
21.08.2019 15:00:00 33,6 6,0 5 3 14 8 NNE - 17 57 0,0
21.08.2019 14:00:00 31,6 6,5 6 3 21 11 NNE 1015,0 14 57 -
21.08.2019 13:00:00 31,5 7,8 6 3 20 11 NE 1015,6 16 48 0,0
21.08.2019 12:00:00 29,0 8,7 6 3 11 6 WNW 1016,3 20 56 0,0
21.08.2019 11:00:00 28,4 10,2 4 2 13 7 E 1016,6 20 59 0,0
21.08.2019 10:00:00 24,2 14,9 4 2 7 4 NNE 1016,9 17 30 0,0
21.08.2019 09:00:00 21,5 14,4 2 1 6 4 S 1017,2 17 1 0,0
21.08.2019 08:00:00 20,3 14,4 4 2 9 5 W 1017,0 17 0 -
21.08.2019 07:00:00 20,6 14,0 4 2 10 6 NE 1016,5 17 0 0,0
21.08.2019 06:00:00 21,3 14,2 6 3 13 7 NE 1016,2 17 0 0,0
21.08.2019 05:00:00 22,5 14,3 8 5 13 7 NE 1015,7 19 0 0,0
21.08.2019 04:00:00 24,0 14,4 6 3 16 8 E 1015,2 16 0 0,0
21.08.2019 03:00:00 25,4 14,2 9 5 26 14 E 1014,9 13 0 0,0
21.08.2019 02:00:00 25,9 11,2 10 5 20 11 E 1014,5 15 0 -
21.08.2019 01:00:00 23,3 5,6 3 2 7 4 SE 1015,0 17 0 0,0
21.08.2019 00:00:00 25,2 5,5 3 2 8 4 E 1014,5 16 0 0,0
20.08.2019 23:00:00 27,4 5,6 3 1 12 7 SE 1014,0 17 0 0,0
20.08.2019 22:00:00 28,8 5,0 2 1 14 7 WNW 1013,3 17 0 0,0
20.08.2019 21:00:00 31,3 4,1 11 6 21 11 W 1012,3 17 50 0,0
20.08.2019 20:00:00 33,5 2,3 15 8 23 12 W 1011,8 18 60 -
20.08.2019 19:00:00 35,1 2,5 4 2 12 7 SSW 1011,4 20 60 0,0
20.08.2019 18:00:00 34,8 2,3 5 3 19 10 W 1011,7 19 60 0,0
20.08.2019 17:00:00 34,6 2,1 6 3 15 8 W 1012,1 7 60 0,0
20.08.2019 16:00:00 33,8 2,7 9 5 18 10 WNW 1013,0 20 60 0,0
20.08.2019 15:00:00 33,2 2,1 11 6 17 9 NNW - 18 60 0,0
20.08.2019 14:00:00 31,5 5,1 5 3 17 9 E 1014,1 15 60 -
20.08.2019 13:00:00 29,5 6,2 4 2 15 8 S 1015,0 20 60 0,0
20.08.2019 12:00:00 27,2 6,5 4 2 10 5 NW 1015,4 11 60 0,0
20.08.2019 11:00:00 24,3 7,4 4 2 9 5 W 1015,7 14 60 0,0
20.08.2019 10:00:00 21,8 8,3 4 2 7 4 WSW 1015,8 15 60 0,0
20.08.2019 09:00:00 19,0 9,2 4 2 7 4 NNE 1016,0 17 23 0,0
20.08.2019 08:00:00 18,7 8,7 3 2 7 4 W 1015,3 17 0 -
20.08.2019 07:00:00 19,6 8,9 7 4 18 10 W 1014,6 16 0 0,0
20.08.2019 06:00:00 21,1 6,2 6 3 10 5 SSW 1013,8 16 0 0,0
20.08.2019 05:00:00 21,6 5,1 6 3 19 10 WSW 1013,9 17 0 0,0
20.08.2019 04:00:00 22,4 4,8 6 4 21 11 SSW 1013,8 15 0 0,0
20.08.2019 03:00:00 24,4 4,1 6 4 21 11 SW 1013,4 16 0 0,0
20.08.2019 02:00:00 25,0 4,1 6 3 12 7 WSW 1013,4 17 0 -
20.08.2019 01:00:00 25,5 1,5 7 4 18 10 W 1013,5 16 0 0,0
20.08.2019 00:00:00 26,3 0,0 6 4 24 13 W 1012,8 17 0 0,0
19.08.2019 23:00:00 26,9 -0,3 10 5 19 10 WSW 1012,6 18 0 0,0
19.08.2019 22:00:00 27,4 2,5 6 3 22 12 W 1012,0 19 0 0,0
19.08.2019 21:00:00 29,2 2,5 13 7 26 14 W 1011,4 18 15 0,0
19.08.2019 20:00:00 30,9 3,0 19 10 32 18 WNW 1011,1 15 56 -
19.08.2019 19:00:00 32,6 2,7 19 10 35 19 W 1010,9 15 60 0,0
19.08.2019 18:00:00 32,6 0,6 16 9 35 19 W 1011,4 20 60 0,0
19.08.2019 17:00:00 33,0 2,9 15 8 31 17 WSW 1011,6 20 60 0,0
19.08.2019 16:00:00 32,9 1,9 15 8 31 17 W 1012,0 15 60 0,0
19.08.2019 15:00:00 32,4 4,3 13 7 26 14 SW 1012,5 14 60 0,0
19.08.2019 14:00:00 30,7 4,5 10 6 25 13 WSW 1013,1 18 60 -
19.08.2019 13:00:00 30,3 5,5 13 7 22 12 W 1013,4 20 60 0,0
19.08.2019 12:00:00 28,4 10,5 5 3 14 7 W 1013,5 18 60 0,0
19.08.2019 11:00:00 25,7 13,9 6 3 14 8 WNW 1014,1 15 60 0,0
19.08.2019 10:00:00 23,8 14,5 6 3 11 6 S 1014,1 19 60 0,0
19.08.2019 09:00:00 22,4 15,0 3 2 15 8 S 1014,5 15 60 0,0
19.08.2019 08:00:00 20,4 14,7 6 4 19 10 SW 1014,7 17 9 -
19.08.2019 07:00:00 20,4 14,7 1 1 12 6 S 1014,2 18 0 0,0

tt = temperature
td = dewpoint
ff = wind speed
fx = gusts
dd = wind direction
ppp = reduced air pressure
vv = visibility
sd = sunshine duration
rr = precipitation

Next stations